Stations météo

réclame
Mon MeteoGroup
Termoli, Italie (16232): Température de l'air & dewpoint: 17.04.2018 03:00:00 - 23.04.2018 03:00:00 (CEST)Termoli, Italie (16232): Vitesse du vent: 17.04.2018 03:00:00 - 23.04.2018 03:00:00 (CEST)Termoli, Italie (16232): Direction du vent: 17.04.2018 03:00:00 - 23.04.2018 03:00:00 (CEST)Termoli, Italie (16232): reduced air pressure: 17.04.2018 03:00:00 - 23.04.2018 03:00:00 (CEST)Termoli, Italie (16232): visibility: 17.04.2018 03:00:00 - 23.04.2018 03:00:00 (CEST)Termoli, Italie (16232): Ensoleillement: 17.04.2018 03:00:00 - 23.04.2018 03:00:00 (CEST)
Date & Time tt [°C] td [°C] ff [km/h] ff [knt] dd ppp [hPa] vv [km] sd [min]
23.04.2018 03:00:00 - - - - - - - -
23.04.2018 02:00:00 - - - - - - - -
23.04.2018 01:00:00 - - - - - - - -
23.04.2018 00:00:00 - - - - - - - -
22.04.2018 23:00:00 - - - - - - - -
22.04.2018 22:00:00 - - - - - - - -
22.04.2018 21:00:00 - - - - - - - -
22.04.2018 20:00:00 20,4 18,9 2 1 ESE 1016,7 10 24
22.04.2018 19:00:00 - - - - - - - -
22.04.2018 18:00:00 - - - - - - - -
22.04.2018 17:00:00 22,2 19,2 5 3 E 1016,7 10 60
22.04.2018 16:00:00 - - - - - - - -
22.04.2018 15:00:00 - - - - - - - -
22.04.2018 14:00:00 21,4 18,4 8 4 NE 1017,6 15 60
22.04.2018 13:00:00 - - - - - - - -
22.04.2018 12:00:00 - - - - - - - -
22.04.2018 11:00:00 19,8 15,7 8 4 NNE 1018,3 20 60
22.04.2018 10:00:00 - - - - - - - -
22.04.2018 09:00:00 - - - - - - - -
22.04.2018 08:00:00 16,2 13,9 2 1 S 1018,6 20 24
22.04.2018 07:00:00 - - - - - - - -
22.04.2018 06:00:00 - - - - - - - -
22.04.2018 05:00:00 - - - - - - - -
22.04.2018 04:00:00 - - - - - - - -
22.04.2018 03:00:00 - - - - - - - -
22.04.2018 02:00:00 - - - - - - - -
22.04.2018 01:00:00 - - - - - - - -
22.04.2018 00:00:00 - - - - - - - -
21.04.2018 23:00:00 - - - - - - - -
21.04.2018 22:00:00 - - - - - - - -
21.04.2018 21:00:00 - - - - - - - -
21.04.2018 20:00:00 20,0 12,5 11 6 SE 1018,2 20 24
21.04.2018 19:00:00 - - - - - - - -
21.04.2018 18:00:00 - - - - - - - -
21.04.2018 17:00:00 23,0 15,6 9 5 E 1019,0 18 60
21.04.2018 16:00:00 - - - - - - - -
21.04.2018 15:00:00 - - - - - - - -
21.04.2018 14:00:00 22,0 16,5 4 2 ENE 1019,3 20 60
21.04.2018 13:00:00 - - - - - - - -
21.04.2018 12:00:00 - - - - - - - -
21.04.2018 11:00:00 20,0 14,1 13 7 NNW 1019,4 20 60
21.04.2018 10:00:00 - - - - - - - -
21.04.2018 09:00:00 - - - - - - - -
21.04.2018 08:00:00 18,8 12,3 4 2 WNW 1019,4 20 -
21.04.2018 07:00:00 - - - - - - - -
21.04.2018 06:00:00 - - - - - - - -
21.04.2018 05:00:00 - - - - - - - -
21.04.2018 04:00:00 - - - - - - - -
21.04.2018 03:00:00 - - - - - - - -
21.04.2018 02:00:00 - - - - - - - -
21.04.2018 01:00:00 - - - - - - - -
21.04.2018 00:00:00 - - - - - - - -
20.04.2018 23:00:00 - - - - - - - -
20.04.2018 22:00:00 - - - - - - - -
20.04.2018 21:00:00 - - - - - - - -
20.04.2018 20:00:00 20,0 16,0 26 14 WNW 1018,1 10 0
20.04.2018 19:00:00 - - - - - - - -
20.04.2018 18:00:00 - - - - - - - -
20.04.2018 17:00:00 21,4 16,8 21 11 WNW 1019,4 9 60
20.04.2018 16:00:00 - - - - - - - -
20.04.2018 15:00:00 - - - - - - - -
20.04.2018 14:00:00 22,0 16,3 15 8 WNW 1021,2 10 60
20.04.2018 13:00:00 - - - - - - - -
20.04.2018 12:00:00 - - - - - - - -
20.04.2018 11:00:00 20,2 14,1 24 13 WNW 1021,4 10 60
20.04.2018 10:00:00 - - - - - - - -
20.04.2018 09:00:00 - - - - - - - -
20.04.2018 08:00:00 19,0 11,8 28 15 WNW 1021,3 15 -
20.04.2018 07:00:00 - - - - - - - -
20.04.2018 06:00:00 - - - - - - - -
20.04.2018 05:00:00 - - - - - - - -
20.04.2018 04:00:00 - - - - - - - -
20.04.2018 03:00:00 - - - - - - - -
20.04.2018 02:00:00 - - - - - - - -
20.04.2018 01:00:00 - - - - - - - -
20.04.2018 00:00:00 - - - - - - - -
19.04.2018 23:00:00 - - - - - - - -
19.04.2018 22:00:00 - - - - - - - -
19.04.2018 21:00:00 - - - - - - - -
19.04.2018 20:00:00 18,2 15,8 18 10 WNW 1023,4 15 0
19.04.2018 19:00:00 - - - - - - - -
19.04.2018 18:00:00 - - - - - - - -
19.04.2018 17:00:00 21,2 17,0 16 9 WNW 1024,6 15 60
19.04.2018 16:00:00 - - - - - - - -
19.04.2018 15:00:00 - - - - - - - -
19.04.2018 14:00:00 20,8 16,4 16 9 WNW 1025,4 18 60
19.04.2018 13:00:00 - - - - - - - -
19.04.2018 12:00:00 - - - - - - - -
19.04.2018 11:00:00 20,0 14,6 15 8 NW 1025,4 18 -
19.04.2018 10:00:00 - - - - - - - -
19.04.2018 09:00:00 - - - - - - - -
19.04.2018 08:00:00 18,0 14,5 26 14 NW 1025,2 20 0
19.04.2018 07:00:00 - - - - - - - -
19.04.2018 06:00:00 - - - - - - - -
19.04.2018 05:00:00 - - - - - - - -
19.04.2018 04:00:00 - - - - - - - -
19.04.2018 03:00:00 - - - - - - - -
19.04.2018 02:00:00 - - - - - - - -
19.04.2018 01:00:00 - - - - - - - -
19.04.2018 00:00:00 - - - - - - - -
18.04.2018 23:00:00 - - - - - - - -
18.04.2018 22:00:00 - - - - - - - -
18.04.2018 21:00:00 - - - - - - - -
18.04.2018 20:00:00 17,0 14,3 31 17 WNW 1024,3 15 0
18.04.2018 19:00:00 - - - - - - - -
18.04.2018 18:00:00 - - - - - - - -
18.04.2018 17:00:00 19,0 16,8 24 13 WNW 1024,2 10 0
18.04.2018 16:00:00 - - - - - - - -
18.04.2018 15:00:00 - - - - - - - -
18.04.2018 14:00:00 19,4 16,1 24 13 NW 1024,3 12 18
18.04.2018 13:00:00 - - - - - - - -
18.04.2018 12:00:00 - - - - - - - -
18.04.2018 11:00:00 19,4 14,9 28 15 NW 1023,6 10 42
18.04.2018 10:00:00 - - - - - - - -
18.04.2018 09:00:00 - - - - - - - -
18.04.2018 08:00:00 17,4 15,2 29 16 WNW 1022,6 15 0
18.04.2018 07:00:00 - - - - - - - -
18.04.2018 06:00:00 - - - - - - - -
18.04.2018 05:00:00 - - - - - - - -
18.04.2018 04:00:00 - - - - - - - -
18.04.2018 03:00:00 - - - - - - - -
18.04.2018 02:00:00 - - - - - - - -
18.04.2018 01:00:00 - - - - - - - -
18.04.2018 00:00:00 - - - - - - - -
17.04.2018 23:00:00 - - - - - - - -
17.04.2018 22:00:00 - - - - - - - -
17.04.2018 21:00:00 - - - - - - - -
17.04.2018 20:00:00 17,4 16,1 22 12 WNW 1019,4 7 0
17.04.2018 19:00:00 - - - - - - - -
17.04.2018 18:00:00 - - - - - - - -
17.04.2018 17:00:00 17,4 16,6 22 12 WNW 1019,2 5 0
17.04.2018 16:00:00 - - - - - - - -
17.04.2018 15:00:00 - - - - - - - -
17.04.2018 14:00:00 17,6 16,6 28 15 NW 1019,2 5 0
17.04.2018 13:00:00 - - - - - - - -
17.04.2018 12:00:00 - - - - - - - -
17.04.2018 11:00:00 17,8 16,1 21 11 NW 1018,3 6 0
17.04.2018 10:00:00 - - - - - - - -
17.04.2018 09:00:00 - - - - - - - -
17.04.2018 08:00:00 16,8 16,5 16 9 NW 1017,1 4,0 0
17.04.2018 07:00:00 - - - - - - - -
17.04.2018 06:00:00 - - - - - - - -
17.04.2018 05:00:00 - - - - - - - -
17.04.2018 04:00:00 - - - - - - - -
17.04.2018 03:00:00 - - - - - - - -

tt = Température de l'air
td = dewpoint
ff = Vitesse du vent
dd = Direction du vent
ppp = reduced air pressure
vv = visibility
sd = Ensoleillement

stations d'obs. à proximité